Weather History for KNYC - June, 2014

Change the Weather History Date:

Thursday, June 5, 2014

  Actual Average Record
Temperature  
Mean Temperature 69 °F 68 °F  
Max Temperature 76 °F 76 °F 99 °F (1925)
Min Temperature 61 °F 60 °F 47 °F (1945)
Degree Days  
Heating Degree Days 0 1  
Month to date heating degree days 0 8  
Since 1 June heating degree days 0 8  
Since 1 July heating degree days 4962 4739  
Cooling Degree Days 4 5  
Month to date cooling degree days 29 22  
Year to date cooling degree days 83 91  
Since 1 June cooling degree days 29 22  
Growing Degree Days 18 (Base 50)    
Moisture  
Dew Point 60 °F    
Average Humidity 67    
Maximum Humidity 93    
Minimum Humidity 41    
Precipitation  
Precipitation 0.87 in 0.16 in 2.80 in (1992)
Month to date precipitation 0.99 0.80  
Year to date precipitation 25.15 20.59  
Snow  
Snow 0.00 in 0.00 in 0.00 in (2002)
Month to date snowfall 0.0 0.0  
Since 1 July snowfall 57.4 25.8  
Snow Depth 0.00 in    
Sea Level Pressure  
Sea Level Pressure 29.70 in    
Wind  
Wind Speed 6 mph (NE)    
Max Wind Speed 13 mph    
Max Gust Speed 20 mph    
Visibility 5 miles    
Events Rain    
T = Trace of Precipitation, MM = Missing Value Source: NWS Daily Summary

Daily Weather History Graph

Daily Weather History Graph

Search for Another Location

Airport or City:

Trip Planner

Search our weather history database for the weather conditions in past years. The results will help you decide how hot, cold, wet, or windy it might be!

Date:

Astronomy

Jun. 05, 2014 Rise Set
Actual Time 5:25 AM EDT 8:23 PM EDT
Civil Twilight 4:52 AM EDT 8:56 PM EDT
Nautical Twilight 4:10 AM EDT 9:38 PM EDT
Astronomical Twilight 3:21 AM EDT 10:27 PM EDT
Moon 12:41 PM EDT 12:48 AM EDT
Length of Visible Light 16h 04m
Length of Day
14h 58m
Waxing Crescent, 48% of the Moon is Illuminated
Jun 5
Waxing Crescent
Jun 5
First Quarter
Jun 13
Full
Jun 19
Last Quarter
Jun 27
New

Hourly Weather History & Observations

Time (EDT) Temp. Dew Point Humidity Pressure Visibility Wind Dir Wind Speed Gust Speed Precip Events Conditions
12:51 AM 69.1 °F 61.0 °F 75% 29.74 in 8.0 mi SSE 4.6 mph - N/A   Overcast
1:51 AM 66.9 °F 63.0 °F 87% 29.75 in 5.0 mi Variable 5.8 mph - 0.01 in Rain Light Rain
2:51 AM 66.0 °F 63.0 °F 90% 29.72 in 4.0 mi Calm Calm - 0.00 in   Overcast
3:51 AM 66.0 °F 63.0 °F 90% 29.70 in 3.0 mi NE 5.8 mph - 0.00 in Rain Light Rain
4:10 AM 64.9 °F 63.0 °F 93% 29.72 in 2.5 mi ENE 5.8 mph - 0.02 in Rain Light Rain
4:51 AM 64.9 °F 63.0 °F 93% 29.68 in 2.5 mi NE 5.8 mph - 0.05 in Rain Light Rain
5:14 AM 64.9 °F 63.0 °F 93% 29.71 in 2.5 mi Variable 4.6 mph - 0.00 in Rain Light Rain
5:24 AM 64.9 °F 63.0 °F 93% 29.72 in 3.0 mi Variable 4.6 mph - 0.01 in Rain Light Rain
5:31 AM 64.9 °F 62.1 °F 90% 29.72 in 2.0 mi Variable 6.9 mph - 0.01 in Rain Rain
5:39 AM 64.0 °F 62.1 °F 93% 29.72 in 1.2 mi ENE 6.9 mph - 0.04 in Rain Heavy Rain
5:51 AM 64.0 °F 62.1 °F 93% 29.69 in 0.8 mi ESE 4.6 mph - 0.17 in Rain Heavy Rain
6:01 AM 64.0 °F 62.1 °F 93% 29.72 in 1.2 mi Variable 3.5 mph - 0.03 in Rain Light Rain
6:08 AM 64.0 °F 62.1 °F 93% 29.72 in 2.0 mi ENE 3.5 mph - 0.04 in Rain Light Rain
6:15 AM 64.0 °F 63.0 °F 96% 29.72 in 0.8 mi North 3.5 mph - 0.07 in Rain Heavy Rain
6:25 AM 64.0 °F 63.0 °F 96% 29.72 in 1.0 mi ENE 4.6 mph - 0.13 in Rain Rain
6:33 AM 64.9 °F 63.0 °F 93% 29.71 in 1.0 mi ENE 3.5 mph - 0.17 in Rain Heavy Rain
6:48 AM 64.4 °F 62.6 °F 94% 29.71 in 2.0 mi NNE 5.8 mph - 0.20 in Rain Light Rain
6:51 AM 64.0 °F 63.0 °F 96% 29.69 in 2.0 mi Variable 4.6 mph - 0.20 in Rain Rain
6:56 AM 64.0 °F 62.1 °F 93% 29.71 in 0.8 mi NE 5.8 mph - 0.05 in Rain Heavy Rain
7:06 AM 64.0 °F 62.1 °F 93% 29.70 in 1.0 mi ENE 6.9 mph - 0.14 in Rain Heavy Rain
7:37 AM 64.0 °F 62.1 °F 93% 29.69 in 2.5 mi ENE 6.9 mph - 0.18 in Rain Light Rain
7:46 AM 64.4 °F 62.6 °F 94% 29.69 in 3.0 mi Variable 6.9 mph - 0.19 in Rain Light Rain
7:51 AM 64.0 °F 62.1 °F 93% 29.66 in 3.0 mi Variable 5.8 mph - 0.19 in Rain Light Rain
8:44 AM 62.1 °F 59.0 °F 90% 29.69 in 2.5 mi Variable 6.9 mph - 0.00 in Rain Light Rain
8:51 AM 62.1 °F 59.0 °F 90% 29.67 in 1.5 mi NE 10.4 mph 16.1 mph 0.02 in Rain Heavy Rain
9:13 AM 62.1 °F 60.1 °F 93% 29.68 in 2.0 mi ENE 6.9 mph - 0.11 in Rain Light Rain
9:22 AM 62.1 °F 60.1 °F 93% 29.69 in 2.5 mi NNE 6.9 mph - 0.12 in Rain Light Rain
9:35 AM 62.1 °F 60.1 °F 93% 29.68 in 1.5 mi NE 9.2 mph 16.1 mph 0.16 in Rain Rain
9:40 AM 62.1 °F 60.1 °F 93% 29.68 in 2.0 mi NE 9.2 mph 16.1 mph 0.17 in Rain Light Rain
9:51 AM 62.1 °F 60.1 °F 93% 29.65 in 3.0 mi NE 8.1 mph 17.3 mph 0.18 in Rain Light Rain
10:32 AM 62.1 °F 60.1 °F 93% 29.68 in 2.5 mi NE 6.9 mph - 0.03 in Rain Light Rain
10:47 AM 62.6 °F 60.8 °F 94% 29.68 in 3.0 mi ENE 11.5 mph 18.4 mph 0.04 in Rain Light Rain
10:51 AM 62.1 °F 60.1 °F 93% 29.66 in 3.0 mi ENE 9.2 mph - 0.05 in Rain Light Rain
11:08 AM 62.1 °F 60.1 °F 93% 29.69 in 5.0 mi ENE 9.2 mph 17.3 mph 0.00 in   Overcast
11:51 AM 63.0 °F 60.1 °F 90% 29.66 in 9.0 mi Variable 6.9 mph - 0.00 in   Overcast
12:41 PM 64.9 °F 61.0 °F 87% 29.69 in 10.0 mi Variable 6.9 mph - N/A   Overcast
12:51 PM 66.0 °F 61.0 °F 84% 29.66 in 10.0 mi Variable 5.8 mph - N/A   Overcast
12:59 PM 66.0 °F 61.0 °F 84% 29.69 in 10.0 mi Variable 3.5 mph - N/A   Overcast
1:28 PM 66.9 °F 61.0 °F 81% 29.69 in 10.0 mi Variable 6.9 mph - N/A   Overcast
1:51 PM 68.0 °F 61.0 °F 78% 29.66 in 10.0 mi ENE 4.6 mph - N/A   Overcast
2:02 PM 68.0 °F 59.0 °F 73% 29.69 in 10.0 mi NNW 9.2 mph 19.6 mph N/A   Overcast
2:10 PM 70.0 °F 60.1 °F 71% 29.70 in 10.0 mi Variable 6.9 mph - N/A   Mostly Cloudy
2:51 PM 72.0 °F 57.9 °F 61% 29.67 in 10.0 mi Variable 6.9 mph - N/A   Partly Cloudy
3:51 PM 73.9 °F 57.9 °F 57% 29.67 in 10.0 mi Variable 5.8 mph - N/A   Mostly Cloudy
4:51 PM 73.9 °F 57.0 °F 55% 29.67 in 10.0 mi North - - N/A   Mostly Cloudy
5:51 PM 73.9 °F 57.0 °F 55% 29.68 in 10.0 mi Calm Calm - N/A   Mostly Cloudy
6:51 PM 75.9 °F 54.0 °F 46% 29.69 in 10.0 mi Calm Calm - N/A   Mostly Cloudy
7:51 PM 73.9 °F 48.0 °F 40% 29.71 in 10.0 mi NW 8.1 mph - N/A   Clear
8:51 PM 72.0 °F 46.9 °F 41% 29.74 in 10.0 mi WNW 9.2 mph - N/A   Clear
9:51 PM 69.1 °F 46.9 °F 45% 29.77 in 10.0 mi Variable 3.5 mph - N/A   Clear
10:51 PM 68.0 °F 48.0 °F 49% 29.79 in 10.0 mi Variable 4.6 mph - N/A   Mostly Cloudy
11:51 PM 66.9 °F 48.0 °F 51% 29.81 in 10.0 mi NW 6.9 mph - N/A   Overcast